This demonstration page uses our WeatherBlox Daily Observations layout. Learn more.

Left ArrowRight Arrow

Hourly Observations for January 14, 2018

Temp ( °F °C ) Dew Point ( °F °C ) Humidity (%) Winds ( mph kmh ) Pressure ( in mb ) Visibility ( mi km ) Precip ( " mm )
12:56 am 00:56 Cloudy with Light Snow 15 -9.4 12 -11.1 88 88 S 10 17 30.45 1031 9 14 0.00 0.03
1:56 am 01:56 Cloudy with Light Snow 15 -9.4 12 -11.1 88 88 S 8 13 30.42 1030 8 13 0.00 0.03
2:56 am 02:56 Cloudy 16 -8.9 13 -10.6 88 88 S 9 15 30.41 1030 10 16 0.00 0.03
3:56 am 03:56 Cloudy 17 -8.3 14 -10 88 88 SSW 10 17 30.41 1030 10 16 0.00 0.03
4:12 am 04:12 Cloudy 18 -8 14 -10 86 86 SSW 9 15 30.45 1031 10 16 0.00 0.00
4:56 am 04:56 Cloudy 17 -8.3 15 -9.4 92 92 SW 7 11 30.40 1030 10 16 0.00 0.03
5:44 am 05:44 Cloudy 18 -8 16 -9 93 93 WSW 5 7 30.45 1031 10 16 0.03 0.76
5:56 am 05:56 Cloudy 19 -7.2 16 -8.9 88 88 WSW 5 7 30.39 1029 10 16 0.03 0.76
6:56 am 06:56 Mostly Cloudy 19 -7.2 17 -8.3 92 92 WSW 6 9 30.40 1029 10 16 0.02 0.51
7:07 am 07:07 Partly Cloudy 18 -8 16 -9 93 93 WSW 3 6 30.45 1031 10 16 0.00 0.00
7:56 am 07:56 Clear 16 -8.9 14 -10 92 92 WSW 6 9 30.40 1029 10 16 0.00 0.00
8:56 am 08:56 Sunny 19 -7.2 16 -8.9 88 88 SW 6 9 30.37 1029 10 16 0.00 0.00
9:56 am 09:56 Sunny 24 -4.4 20 -6.7 84 84 WSW 6 9 30.37 1029 10 16 0.00 0.00
10:56 am 10:56 Sunny 28 -2.2 23 -5 81 81 SW 7 11 30.34 1028 10 16 0.00 0.00
11:56 am 11:56 Mostly Cloudy 32 0 26 -3.3 79 79 SW 9 15 30.30 1026 10 16 0.00 0.00
1:56 pm 13:56 Sunny 39 3.9 32 0 76 76 WSW 9 15 30.19 1023 10 16 0.00 0.00
2:56 pm 14:56 Cloudy 39 3.9 32 0 76 76 WSW 10 17 30.18 1022 10 16 0.00 0.00
3:56 pm 15:56 Cloudy 38 3.3 32 0 79 79 WSW 7 11 30.17 1022 10 16 0.00 0.00
4:56 pm 16:56 Cloudy 37 2.8 32 0 82 82 W 6 9 30.17 1022 10 16 0.00 0.00
5:56 pm 17:56 Mostly Cloudy 38 3.3 32 0 79 79 NW 10 17 30.18 1022 10 16 0.00 0.00
6:56 pm 18:56 Mostly Clear 38 3.3 31 -0.6 76 76 NNW 10 17 30.19 1023 10 16 0.00 0.00
7:17 pm 19:17 Mostly Cloudy 37 3 32 0 81 81 N 10 17 30.21 1023 10 16 0.00 0.00
7:43 pm 19:43 Cloudy 37 3 30 -1 75 75 NNW 13 20 30.21 1023 10 16 0.00 0.00
7:56 pm 19:56 Cloudy 37 2.8 31 -0.6 79 79 N 12 19 30.23 1024 10 16 0.00 0.00
9:05 pm 21:05 Windy with Snow Likely 36 2 30 -1 81 81 N 25 41 30.27 1025 8 13 0.00 0.03
9:56 pm 21:56 Cloudy with Light Rain 33 0.6 27 -2.8 78 78 N 21 33 30.28 1025 10 16 0.00 0.03
10:56 pm 22:56 Cloudy with Light Wintry Mix 30 -1.1 24 -4.4 79 79 N 21 33 30.31 1026 10 16 0.00 0.03
11:56 pm 23:56 Cloudy 28 -2.2 22 -5.6 78 78 N 21 33 30.34 1028 10 16 0.00 0.03

Powered by AerisWeather